Location: Unspecified
(58.3020°N, 0.0000°E)
Time: 00:23:45
(UTC+00:00)

Spot 3 - Visible Passes

Search period start: 04 April 2026 00:00
Search period end: 14 April 2026 00:00
Orbit: 812 x 838 km, 98.9° (Epoch: 29 March)

Date Brightness Start Highest point End Pass type
(mag) Time Alt. Az. Time Alt. Az. Time Alt. Az.
4 Apr 4.9 19:58:15 10° SE 20:03:22 52° ENE 20:08:31 10° NNW visible
4 Apr 5.8 21:39:43 15° SSW 21:43:44 38° W 21:48:43 10° NNW visible
5 Apr 5.3 19:39:13 10° SE 19:44:09 40° ENE 19:49:05 10° N visible
5 Apr 5.3 21:20:04 15° S 21:24:17 51° W 21:29:30 10° NNW visible
5 Apr 7.2 23:04:05 10° W 23:05:45 11° W 23:07:26 10° WNW visible
6 Apr 4.9 21:00:25 15° S 21:04:53 68° WSW 21:10:13 10° NNW visible
6 Apr 7.0 22:42:56 10° WSW 22:46:05 16° W 22:49:13 10° NW visible
7 Apr 4.6 20:40:46 13° SSE 20:45:31 89° WSW 20:50:54 10° NNW visible
7 Apr 6.7 22:22:30 10° SW 22:26:27 21° W 22:30:27 10° NW visible
8 Apr 4.7 20:21:07 11° SSE 20:26:13 71° ENE 20:31:32 10° NNW visible
8 Apr 6.3 22:02:34 11° SSW 22:06:53 28° W 22:11:26 10° NNW visible
9 Apr 4.9 20:01:47 10° SE 20:06:57 54° ENE 20:12:09 10° NNW visible
9 Apr 5.8 21:42:55 12° SSW 21:47:22 36° W 21:52:18 10° NNW visible
10 Apr 5.2 19:42:46 10° SE 19:47:44 42° ENE 19:52:44 10° N visible
10 Apr 5.4 21:23:16 13° S 21:27:55 48° W 21:33:06 10° NNW visible
10 Apr 7.2 23:08:16 10° W 23:09:27 11° WNW 23:10:38 10° WNW visible
11 Apr 5.0 21:03:38 12° S 21:08:31 65° WSW 21:13:50 10° NNW visible
11 Apr 7.0 22:46:49 10° WSW 22:49:46 15° W 22:52:43 10° NW visible
12 Apr 4.7 20:43:59 11° SSE 20:49:09 85° WSW 20:54:31 10° NNW visible
12 Apr 6.7 22:26:17 10° SW 22:30:07 20° W 22:33:59 10° NW visible
13 Apr 4.7 20:24:31 10° SSE 20:29:50 74° ENE 20:35:10 10° NNW visible
13 Apr 6.3 22:06:07 10° SSW 22:10:33 26° W 22:15:01 10° NW visible
